Regional Weather Roundup
Issued by NWS

Home | Current Version | Previous Version | Text Only | Print | Product List | Glossary Off
Versions: 1 2 3 4 5 6 7 8 9 10 11 12 13 14 15 16 17 18 19 20 21 22 23 24 25 26 27 28 29 30 31 32 33 34 35 36 37 38 39 40 41 42 43 44 45 46 47 48 49 50

000
ASUS43 KMPX 071410
RWRMN
WEATHER ROUNDUP FOR MINNESOTA
NATIONAL WEATHER SERVICE TWIN CITIES/CHANHASSEN MN
900 AM CDT TUE JUL 07 2015


NOTE: "FAIR" INDICATES FEW OR NO CLOUDS BELOW 12,000 FEET WITH NO
SIGNIFICANT WEATHER AND/OR OBSTRUCTIONS TO VISIBILITY. N/A MEANS
CURRENT SKY AND/OR WEATHER CONDITIONS ARE NOT AVAILABLE.

MNZ060>063-068>070-071500-
   Twin Cities Metro

CITY           SKY/WX    TMP DP  RH WIND       PRES   REMARKS
TWIN CITIES    MOSUNNY   60  43  53 NE10      30.16R
ST PAUL        SUNNY     60  45  57 N10       30.16R
CRYSTAL        SUNNY     61  43  51 N12       30.16R
BLAINE         SUNNY     61  46  59 N8        30.17R
LAKEVILLE      SUNNY     57  45  62 N9G17     30.16R
EDEN PRAIRIE   SUNNY     60  43  53 N7        30.16R
SOUTH ST PAUL  SUNNY     60  43  52 N6        30.16R
LAKE ELMO      FAIR      59  45  58 N13       30.17R
$$
MNZ001>005-007-008-013>017-022>024-027-028-071500-
   Northwest Minnesota

CITY           SKY/WX    TMP DP  RH WIND       PRES   REMARKS
BEMIDJI        SUNNY     58  46  64 NW6       30.19S
HALLOCK        SUNNY     59  52  77 W7        30.17S
ROSEAU         SUNNY     59  52  77 W6        30.17S
WARROAD        SUNNY     57  48  72 W6        30.17S
THIEF RVR FALL SUNNY     57  48  72 CALM      30.20R
CROOKSTON      SUNNY     57  52  82 W3        30.20S
FOSSTON        SUNNY     57  52  82 CALM      30.20S
DETROIT LAKES  SUNNY     59  48  67 CALM      30.22R
MOORHEAD       SUNNY     55  48  76 CALM      30.22R
PARK RAPIDS    SUNNY     60  41  49 N10       30.19R
MAHNOMEN       FAIR      56  49  76 CALM      30.20R
$$
MNZ006-009>011-018-025>026-071500-
   North Central Minnesota

CITY           SKY/WX    TMP DP  RH WIND       PRES   REMARKS
BAUDETTE       SUNNY     60  50  69 NW6       30.16S
FLAG ISLAND    SUNNY     57  46  67 NW8       30.15R
INTL FALLS     SUNNY     60  46  59 NW8       30.15R
WASKISH        SUNNY     61  48  63 NW6       30.18R
BIG FORK       SUNNY     59  46  63 NW5       30.18R
LONGVILLE      SUNNY     59  46  63 N5        30.17R
GRAND RAPIDS   SUNNY     59  46  63 N7        30.17S
CRANE LAKE     SUNNY     57  48  72 NW2       30.16R
COOK           SUNNY     57  46  67 W3        30.16S
WALKER         FAIR      58  46  65 NW7       30.18S
$$
MNZ012-019>021-037-071500-
   Northeast Minnesota

CITY           SKY/WX    TMP DP  RH WIND       PRES   REMARKS
DULUTH         MOSUNNY   59  45  59 N10       30.15R
ELY            SUNNY     57  45  62 NW8       30.14S
HIBBING        SUNNY     60  45  57 N6        30.16R
DULUTH HARBOR    N/A     63  50  63 N14       30.15R
TWO HARBORS    SUNNY     63  50  63 N3        30.13R
SILVER BAY     SUNNY     63  46  55 CALM      30.12S
GRAND MARAIS     N/A     62  44  51 N9        30.10R
G MARAIS ARPRT SUNNY     55  43  62 NW8       30.12R
$$
MNZ029>031-032-039>041-046>048-054>057-064-071500-
   West Central Minnesota

CITY           SKY/WX    TMP DP  RH WIND       PRES   REMARKS
FERGUS FALLS   SUNNY     59  48  67 N5        30.21S
WHEATON        SUNNY     57  48  72 CALM      30.23S
MORRIS         SUNNY     59  52  77 N3        30.20S
ALEXANDRIA     SUNNY     60  47  61 N6        30.22R
ELBOW LAKE     FAIR      58  48  70 N6        30.21S
WADENA         SUNNY     57  46  67 N7        30.20R
GLENWOOD       SUNNY     57  48  72 N3        30.21S
APPLETON       SUNNY     61  48  63 NE9       30.20S
BENSON         SUNNY     61  48  63 NE8       30.21S
ORTONVILLE     SUNNY     59  46  63 NE8       30.21S
MADISON        SUNNY     59  48  67 NE5       30.21S
WILLMAR        FAIR      61  48  63 N10       30.21S
$$
MNZ033>034-036-042>043-049>051-058-059-071500-
   Central Minnesota

CITY           SKY/WX    TMP DP  RH WIND       PRES   REMARKS
ST CLOUD       SUNNY     59  45  59 N6        30.18S
SAUK CENTRE    FAIR      57  47  68 CALM      30.21R
PAYNESVILLE    SUNNY     55  47  72 N5        30.21R
AITKIN         SUNNY     59  50  72 N5        30.16S
PINE RIVER     SUNNY     59  48  67 N7        30.21R
BRAINERD       SUNNY     59  50  72 N9        30.18R
STAPLES        SUNNY     57  45  62 N7        30.20R
LONG PRAIRIE   FAIR      55  46  71 N3        30.20S
LITTLE FALLS   SUNNY     57  45  62 CALM      30.19R
LITCHFIELD     SUNNY     59  50  72 N8        30.20R
BUFFALO        SUNNY     59  44  57 N12       30.19S
MAPLE LAKE     SUNNY     59  47  64 N8G16     30.19S
$$
MNZ037-044-045-052-053-071500-
   East Central Minnesota

CITY           SKY/WX    TMP DP  RH WIND       PRES   REMARKS
PRINCETON      SUNNY     61  46  59 N10       30.18S
MORA           SUNNY     57  45  62 CALM      30.19R
CAMBRIDGE      SUNNY     61  46  59 N8        30.15S
RUSH CITY      MOSUNNY   58  47  66 N9        30.17S
MOOSE LAKE     SUNNY     57  45  62 CALM      30.15S
HINCKLEY       FAIR      59  46  63 NE6       30.16S
CLOQUET        SUNNY     59  45  58 N6G17     30.16R
MCGREGOR       SUNNY     59  45  58 N8        30.17S
$$
MNZ071>073-080-081-089-090-097-098-071500-
   Southwest Minnesota

CITY           SKY/WX    TMP DP  RH WIND       PRES   REMARKS
MONTEVIDEO     SUNNY     63  52  67 NE8         N/A
GRANITE FALLS  SUNNY     58  50  73 N8        30.22R
CANBY          SUNNY     57  51  79 NE5       30.22S
MARSHALL       SUNNY     57  46  67 NE6         N/A
REDWOOD FALLS  SUNNY     60  50  69 VRB7      30.20R
OLIVIA         SUNNY     57  46  67 N10       30.19R
PIPESTONE      SUNNY     55  48  76 NE9       30.21R
WINDOM         SUNNY     57  46  67 N10       30.20R
WORTHINGTON    SUNNY     55  48  76 NE10      30.20R
JACKSON        SUNNY     57  46  67 NE12      30.19R
TRACY          SUNNY     58  51  78 N9        30.21S
SLAYTON        SUNNY     56  50  80 NE8       30.21R
$$
MNZ065>067-074>077-082>085-091>093-071500-
   South Central Minnesota

CITY           SKY/WX    TMP DP  RH WIND       PRES   REMARKS
MANKATO        SUNNY     57  45  62 N15G23    30.17S
NEW ULM        SUNNY     57  46  67 NE10      30.18R
ST JAMES         N/A     59  50  72 N13       30.20R
FAIRMONT       SUNNY     57  45  62 N14       30.17R
GLENCOE        SUNNY     59  50  71 N8G16     30.17S
FARIBAULT      SUNNY     59  48  67 N9        30.16R
OWATONNA       SUNNY     57  46  67 N12       30.16R
WASECA         SUNNY     55  46  71 N9        30.18R
ALBERT LEA     SUNNY     57  48  72 N13       30.15R
$$
MNZ078>079-086>088-094>096-071500-
   Southeast Minnesota

CITY           SKY/WX    TMP DP  RH WIND       PRES   REMARKS
ROCHESTER      MOSUNNY   59  47  64 NE15      30.15R
RED WING       SUNNY     61  46  59 NE9       30.14R
STANTON        SUNNY     59  48  67 N13       30.14R
DODGE CENTER   MOSUNNY   57  48  72 NE8       30.15R
WINONA         SUNNY     61  45  55 N8        30.12S
AUSTIN         MOSUNNY   61  48  63 NE8       30.14R
PRESTON        MOSUNNY   56  47  70 N9G20     30.14R
$$
ABBREVIATIONS USED IN REMARKS
   TC - TEMPERATURES IN CELSIUS
  WCI - WIND CHILL INDEX
   HX - HEAT INDEX
  VSB - VISIBILITY
$$



USA.gov is the U.S. government's official web portal to all federal, state and local government web resources and services.